Location: Tr�vern
(48.0333°N, 4.6000°W)
Time: 02:57:48
(UTC+00:00)

BREEZE-M DEB (TANK) - Pass Details

Date: 14 July 2020
Orbit: 333 x 16281 km, 49.4° (Epoch: 04 August)

Event Time Altitude Azimuth Distance (km) Brightness Sun altitude
Rises 00:54:45 0° 271° (W) 2,753 5.8 -20.0°
Reaches altitude 10° 00:56:07 10° 272° (W) 2,152 5.3 -20.0°
Maximum altitude 01:00:33 81° 0° (N) 1,294 4.1 -19.9°
Drops below altitude 10° 01:19:31 10° 91° (E) 8,265 8.4 -19.2°
Sets 01:32:32 0° 94° (E) 12,203 9.3 -18.7°
